Regional Weather Roundup
Issued by NWS Sioux Falls, SD

Home | Current Version | Previous Version | Graphics & Text | Print | Product List | Glossary On
Versions: 1 2 3 4 5 6 7 8 9 10 11 12 13 14 15 16 17 18 19 20 21 22 23 24 25 26 27 28 29 30 31 32 33 34 35 36 37 38 39 40 41 42 43 44 45 46 47 48 49 50
000
ASUS43 KFSD 270410
RWRFSD

WEATHER ROUNDUP FOR SE SOUTH DAKOTA/SW MINNESOTA/NW IOWA
NATIONAL WEATHER SERVICE SIOUX FALLS SD
1000 PM CST FRI DEC 26 2014

NOTE: "FAIR" INDICATES FEW OR NO CLOUDS BELOW 12,000 FEET WITH NO
SIGNIFICANT WEATHER AND OR OBSTRUCTIONS TO VISIBILITY.


SDZ038>040-050-052>070-270500-
SOUTHEAST SOUTH DAKOTA

CITY           SKY/WX    TMP DP  RH WIND       PRES   REMARKS
CHAMBERLAIN    CLOUDY    17  13  84 N12       30.16S WCI   4
HURON          CLOUDY    18  14  84 N14       30.17S WCI   4
MADISON        LGT SNOW  19  19 100 N15       30.08S WCI   5
MITCHELL       LGT SNOW  21  19  92 N15       30.15F FOG     WCI   8
SIOUX FALLS    LGT SNOW  22  20  92 N9        30.08R VSB 1   WCI  12
WINNER         LGT SNOW  19  13  77 N13       30.14S WCI   6
YANKTON        CLOUDY    23  19  86 N13       30.12R WCI  11
$$

MNZ071-072-080-081-089-090-097-098-270500-
SOUTHWEST MINNESOTA

CITY           SKY/WX    TMP DP  RH WIND       PRES   REMARKS
FAIRMONT       CLOUDY    28  25  86 N17       30.01F WCI  16
JACKSON        CLOUDY    28  25  86 VRB18G24  30.00F WCI  16
LUVERNE        LGT SNOW  27  23  86 N9        30.07S WCI  17
MARSHALL       CLOUDY    23  18  80 N18       30.09S WCI   9
MONTEVIDEO     CLOUDY    25  21  86 NE14      30.12F WCI  13
PIPESTONE      LGT SNOW  21  19  93 N13G22    30.05F WCI   9
REDWOOD FALLS  LGT SNOW  26  23  88 N8        30.08F FOG     WCI  18
TRACY          LGT SNOW  25  24  95 N13       30.08S WCI  13
WINDOM         LGT SNOW  25  25 100 N15       30.03F WCI  12
WORTHINGTON    CLOUDY    25 -22  12 N15G21    30.04F WCI  12
$$

IAZ001>003-012>014-020>022-031-032-NEZ013-014-SDZ071-270500-
NORTHWEST IOWA

CITY           SKY/WX    TMP DP  RH WIND       PRES   REMARKS
CHEROKEE       LGT SNOW  28  27  99 N12       30.02R WCI  17
DENISON        CLOUDY    30  30 100 NE12      29.99R FOG     WCI  21
ESTHERVILLE    CLOUDY    27  25  92 N15       30.00F FOG     WCI  15
LE MARS        LGT SNOW  27  25  93 N9G15     30.06R WCI  17
ORANGE CITY    LGT SNOW  27  25  93 N8        30.04R VSB 1   WCI  18
SHELDON        MIX PCPN  25  25 100 N20       30.02S WCI  11
SIOUX CITY     LGT SNOW  27  24  89 N15       30.06F FOG     WCI  15
SPENCER        LGT SNOW  28  24  85 N14       30.01F FOG     WCI  17
STORM LAKE     LGT SNOW  28  28 100 N15       30.00R WCI  17
$$

ABBREVIATIONS USED IN REMARKS
   TC - TEMPERATURE IN CELSIUS
  WCI - WIND CHILL INDEX
   HX - HEAT INDEX
  VSB - VISIBILITY



USA.gov is the U.S. government's official web portal to all federal, state and local government web resources and services.